Regional Weather Roundup
Issued by NWS

Home | Current Version | Previous Version | Text Only | Print | Product List | Glossary On
Versions: 1 2 3 4 5 6 7 8 9 10 11 12 13 14 15 16 17 18 19 20 21 22 23 24 25 26 27 28 29 30 31 32 33 34 35 36 37 38 39 40 41 42 43 44 45 46 47 48 49 50
000
ASUS44 KOUN 182010
RWROK

WEATHER ROUNDUP FOR OKLAHOMA
NATIONAL WEATHER SERVICE NORMAN OK
300 PM CDT SAT APR 18 2015

NOTE: "FAIR" INDICATES FEW OR NO CLOUDS BELOW 12,000 FEET WITH NO
      SIGNIFICANT WEATHER AND/OR OBSTRUCTIONS TO VISIBILITY.

OKZ001>007-009>012-014-015-017-182100-
NORTHWEST OKLAHOMA AND THE PANHANDLE

CITY           SKY/WX    TMP DP  RH WIND       PRES   REMARKS
GAGE           MOSUNNY   72  57  59 SE13G23   29.80F
GUYMON         PTSUNNY   68  33  27 W20G30    29.81S
$$

OKZ016-021>023-033>039-044-045-182100-
SOUTHWEST OKLAHOMA

CITY           SKY/WX    TMP DP  RH WIND       PRES   REMARKS
LAWTON/REGL    CLOUDY    71  61  70 SE10      29.84F
LAWTON/FT SILL CLOUDY    71  62  72 S9        29.82F
FREDERICK      MOSUNNY   76  63  64 SE9       29.79F
CLINTON        MOSUNNY   71  59  65 S14       29.84F
HOBART         MOSUNNY   73  62  68 S12       29.82F
ALTUS AFB      MOSUNNY   73  61  64 SE8       29.80F
$$

OKZ018>020-024>031-182100-
CENTRAL OKLAHOMA

CITY           SKY/WX    TMP DP  RH WIND       PRES   REMARKS
OKLAHOMA CITY  PTSUNNY   76  58  53 SE14      29.83F
OKC/WILEY POST PTSUNNY   75  58  55 S12       29.83F
OKC/TINKER AFB MOSUNNY   73  57  56 S13       29.83F
STILLWATER     MOSUNNY   72  56  57 SE9       29.85F
GUTHRIE        PTSUNNY   74  60  61 SE8       29.84F
$$

OKZ008-013-054>072-182100-
NORTHEAST OKLAHOMA

CITY           SKY/WX    TMP DP  RH WIND       PRES   REMARKS
TULSA          PTSUNNY   74  61  63 SE8       29.84F
TULSA/JONES    CLOUDY    74  60  61 SE9       29.86F
PONCA CITY     CLOUDY    71  57  61 SE10      29.84F
BARTLESVILLE   MOSUNNY   73  59  61 SE5       29.86F
MUSKOGEE       SUNNY     75  57  53 SE15      29.86F
$$

OKZ032-040>043-046>053-073>077-182100-
SOUTH CENTRAL/SOUTHEAST OKLAHOMA

CITY           SKY/WX    TMP DP  RH WIND       PRES   REMARKS
ARDMORE/DWNTWN MOSUNNY   75  55  50 SW5       29.83F
MCALESTER      CLOUDY    77  61  57 E6        29.85F
$$




USA.gov is the U.S. government's official web portal to all federal, state and local government web resources and services.